Weather observations for the past three days for
Nome, Nome Airport
| Date | Time (akdt) | Wind (mph) | Vis. (mi.) | Weather | Sky Cond. | Temperature (ºF) | Relative Humidity | Wind Chill (°F) | Heat Index (°F) | Pressure | Precipitation (in) | ||||||
|---|---|---|---|---|---|---|---|---|---|---|---|---|---|---|---|---|---|
| Air | Dwpt | 6 hour | altimeter (in) | sea level (mb) | 1 hr | 3 hr | 6 hr | ||||||||||
| Max. | Min. | ||||||||||||||||
| 07 | 13:53 | S 7 | 10.00 | A Few Clouds | FEW019 | 27 | 19.9 | 75% | 20 | 30.15 | 1021.0 | ||||||
| 07 | 12:53 | S 7 | 10.00 | Fair | CLR | 27 | 19.9 | 75% | 20 | 30.15 | 1021.0 | ||||||
| 07 | 11:53 | S 6 | 10.00 | Fair | CLR | 26.1 | 19 | 75% | 20 | 30.15 | 1020.9 | ||||||
| 07 | 10:53 | S 5 | 10.00 | Partly Cloudy | SCT015 | 26.1 | 19 | 75% | 21 | 30.15 | 1021.0 | ||||||
| 07 | 09:53 | Vrbl 3 | 10.00 | A Few Clouds | FEW012 | 25 | 18 | 25 | 18 | 75% | 30.15 | 1020.9 | |||||
| 07 | 08:53 | Calm | 10.00 | Fair | CLR | 24.1 | 18 | 77% | 30.15 | 1020.8 | |||||||
| 07 | 07:53 | Calm | 10.00 | Fair | CLR | 21.9 | 17.1 | 82% | 30.15 | 1020.8 | |||||||
| 07 | 06:53 | Calm | 10.00 | Fair | CLR | 21 | 17.1 | 85% | 30.14 | 1020.6 | |||||||
| 07 | 05:53 | W 3 | 10.00 | Fair | CLR | 19 | 15.1 | 84% | 30.14 | 1020.6 | |||||||
| 07 | 04:53 | NW 3 | 10.00 | Fair | CLR | 19.9 | 17.1 | 89% | 30.13 | 1020.4 | |||||||
| 07 | 03:53 | N 3 | 10.00 | Fair | CLR | 21.9 | 19 | 30.9 | 21.9 | 89% | 30.13 | 1020.4 | |||||
| 07 | 02:53 | Calm | 10.00 | Fair | CLR | 23 | 17.1 | 78% | 30.13 | 1020.4 | |||||||
| 07 | 01:53 | NW 6 | 10.00 | Fair | CLR | 24.1 | 18 | 77% | 18 | 30.13 | 1020.2 | ||||||
| 07 | 00:53 | NW 3 | 10.00 | Fair | CLR | 27 | 18 | 69% | 30.12 | 1019.9 | |||||||
| 06 | 23:53 | W 3 | 10.00 | Fair | CLR | 28 | 19 | 69% | 30.11 | 1019.5 | |||||||
| 06 | 22:53 | N 6 | 10.00 | Fair | CLR | 30 | 21 | 69% | 25 | 30.1 | 1019.3 | ||||||
| 06 | 21:53 | W 9 | 10.00 | Fair | CLR | 30.9 | 24.1 | 34 | 28.9 | 76% | 24 | 30.1 | 1019.3 | ||||
| 06 | 20:53 | W 13 | 10.00 | Fair | CLR | 33.1 | 25 | 72% | 25 | 30.1 | 1019.2 | ||||||
| 06 | 19:53 | W 14 | 10.00 | Fair | CLR | 30.9 | 25 | 79% | 21 | 30.09 | 1019.1 | ||||||
| 06 | 18:53 | W 13 | 10.00 | Fair | CLR | 30 | 25 | 82% | 21 | 30.09 | 1019.0 | ||||||
| 06 | 17:53 | W 14 | 10.00 | Fair | CLR | 30 | 21.9 | 72% | 20 | 30.09 | 1018.8 | ||||||
| 06 | 16:53 | W 12 | 10.00 | Fair | CLR | 30 | 23 | 75% | 21 | 30.08 | 1018.8 | ||||||
| 06 | 14:53 | S 7 | 10.00 | Fair | CLR | 28.9 | 21.9 | 75% | 23 | 30.07 | 1018.4 | ||||||
| 06 | 13:53 | SW 6 | 10.00 | Fair | CLR | 28 | 21 | 75% | 22 | 30.08 | 1018.5 | ||||||
| 06 | 12:53 | Vrbl 5 | 10.00 | Fair | CLR | 27 | 21 | 78% | 22 | 30.07 | 1018.2 | ||||||
| 06 | 11:53 | S 6 | 10.00 | Fair | CLR | 26.1 | 19.9 | 78% | 20 | 30.06 | 1017.9 | ||||||
| 06 | 10:53 | SW 7 | 10.00 | Fair | CLR | 25 | 19 | 78% | 18 | 30.06 | 1017.8 | ||||||
| 06 | 09:53 | S 3 | 10.00 | Fair | CLR | 25 | 19 | 26.1 | 21 | 78% | 30.05 | 1017.5 | |||||
| 06 | 08:53 | Calm | 10.00 | Fair | CLR | 25 | 19.9 | 81% | 30.04 | 1017.2 | |||||||
| 06 | 07:53 | Calm | 10.00 | Fair | CLR | 23 | 19 | 85% | 30.03 | 1016.8 | |||||||
| 06 | 06:53 | NW 3 | 10.00 | Fair | CLR | 21 | 16 | 81% | 30.02 | 1016.6 | |||||||
| 06 | 05:53 | N 7 | 10.00 | Partly Cloudy | SCT028 | 23 | 17.1 | 78% | 16 | 30.01 | 1016.3 | ||||||
| 06 | 04:53 | N 5 | 10.00 | Overcast | OVC029 | 26.1 | 19 | 75% | 21 | 30 | 1016.0 | ||||||
| 06 | 03:53 | N 6 | 10.00 | Overcast | OVC030 | 25 | 19 | 32 | 25 | 78% | 19 | 30 | 1015.9 | ||||
| 06 | 02:53 | NW 3 | 10.00 | Overcast | OVC030 | 27 | 19.9 | 75% | 29.99 | 1015.7 | |||||||
| 06 | 01:53 | W 3 | 10.00 | Overcast | OVC031 | 28 | 21 | 75% | 29.99 | 1015.6 | |||||||
| 06 | 00:53 | N 6 | 10.00 | Overcast | OVC031 | 28 | 19.9 | 72% | 22 | 29.98 | 1015.3 | ||||||
| 05 | 23:53 | NW 3 | 10.00 | Overcast | OVC030 | 28.9 | 21.9 | 75% | 29.97 | 1014.9 | |||||||
| 05 | 22:53 | E 7 | 10.00 | A Few Clouds | FEW030 | 28.9 | 23 | 78% | 23 | 29.96 | 1014.4 | ||||||
| 05 | 21:53 | NE 6 | 10.00 | Fair | CLR | 32 | 21.9 | 36 | 30.9 | 66% | 27 | 29.94 | 1014.0 | ||||
| 05 | 20:53 | NW 10 | 10.00 | Fair | CLR | 32 | 19 | 59% | 24 | 29.94 | 1013.8 | ||||||
| 05 | 19:53 | NW 7 | 10.00 | Fair | CLR | 33.1 | 19 | 56% | 28 | 29.94 | 1013.8 | ||||||
| 05 | 18:53 | W 17 | 10.00 | Fair | CLR | 34 | 21.9 | 61% | 24 | 29.93 | 1013.6 | ||||||
| 05 | 17:53 | W 15 | 10.00 | Fair | CLR | 35.1 | 23 | 61% | 26 | 29.92 | 1013.3 | ||||||
| 05 | 16:53 | NW 12 | 10.00 | Fair | CLR | 35.1 | 21 | 57% | 28 | 29.92 | 1013.0 | ||||||
| 05 | 15:53 | W 9 | 10.00 | Fair | CLR | 35.1 | 23 | 35.1 | 27 | 61% | 29 | 29.91 | 1013.0 | ||||
| 05 | 14:53 | W 5 | 10.00 | Fair | CLR | 34 | 21 | 59% | 30 | 29.92 | 1013.1 | ||||||
| 05 | 13:53 | NW 5 | 10.00 | Fair | CLR | 33.1 | 19 | 56% | 29 | 29.91 | 1012.9 | ||||||
| 05 | 12:53 | W 6 | 10.00 | Fair | CLR | 30.9 | 19 | 61% | 26 | 29.92 | 1013.0 | ||||||
| 05 | 11:53 | Calm | 10.00 | Fair | CLR | 30.9 | 19 | 61% | 29.92 | 1013.1 | |||||||
| 05 | 10:53 | Calm | 10.00 | Fair | CLR | 28.9 | 19 | 66% | 29.92 | 1013.0 | |||||||
| 05 | 09:53 | Calm | 10.00 | Fair | CLR | 27 | 19 | 27 | 19.9 | 72% | 29.92 | 1013.2 | |||||
| 05 | 08:53 | W 6 | 10.00 | Fair | CLR | 25 | 19 | 78% | 19 | 29.92 | 1013.0 | ||||||
| 05 | 07:53 | W 6 | 10.00 | Fair | CLR | 24.1 | 18 | 77% | 18 | 29.91 | 1012.9 | ||||||
| 05 | 06:53 | NW 7 | 10.00 | Fair | CLR | 21.9 | 18 | 85% | 14 | 29.91 | 1012.8 | ||||||
| 05 | 05:53 | NW 6 | 10.00 | Fair | CLR | 21 | 18 | 88% | 14 | 29.91 | 1012.9 | ||||||
| 05 | 04:53 | NW 6 | 10.00 | Fair | CLR | 21.9 | 19 | 89% | 15 | 29.91 | 1012.9 | ||||||
| 05 | 03:53 | W 12 | 10.00 | Fair | CLR | 24.1 | 19.9 | 34 | 23 | 84% | 14 | 29.92 | 1013.3 | ||||
| 05 | 02:53 | W 6 | 10.00 | Fair | CLR | 25 | 19.9 | 81% | 19 | 29.92 | 1013.4 | ||||||
| 05 | 01:53 | NW 5 | 10.00 | Fair | CLR | 26.1 | 21 | 81% | 21 | 29.94 | 1013.7 | ||||||
| 05 | 00:53 | N 6 | 10.00 | Fair | CLR | 28 | 21 | 75% | 22 | 29.94 | 1014.0 | ||||||
| 04 | 23:53 | NW 3 | 10.00 | Fair | CLR | 28.9 | 21.9 | 75% | 29.95 | 1014.3 | |||||||
| 04 | 22:53 | NW 7 | 10.00 | Fair | CLR | 30.9 | 23 | 72% | 25 | 29.96 | 1014.5 | ||||||
| 04 | 21:53 | NW 7 | 10.00 | Fair | CLR | 34 | 23 | 36 | 32 | 64% | 29 | 29.97 | 1014.8 | ||||
| 04 | 20:53 | NW 8 | 10.00 | Fair | CLR | 36 | 21 | 55% | 30 | 29.97 | 1015.0 | ||||||
| 04 | 19:53 | NW 8 | 10.00 | Fair | CLR | 36 | 19.9 | 52% | 30 | 29.98 | 1015.3 | ||||||
| 04 | 18:53 | NW 8 | 10.00 | Fair | CLR | 36 | 21 | 55% | 30 | 29.99 | 1015.5 | ||||||
| 04 | 17:53 | N 8 | 10.00 | Fair | CLR | 35.1 | 21 | 57% | 29 | 30.01 | 1016.1 | ||||||
| 04 | 16:53 | NW 9 | 10.00 | Fair | CLR | 34 | 19.9 | 56% | 27 | 30.03 | 1016.8 | ||||||
| 04 | 15:53 | W 12 | 10.00 | Fair | CLR | 33.1 | 24.1 | 34 | 27 | 70% | 25 | 30.04 | 1017.3 | ||||
| 04 | 14:53 | W 7 | 10.00 | Fair | CLR | 32 | 21 | 64% | 26 | 30.06 | 1018.0 | ||||||
| Date | Time (akdt) | Wind (mph) | Vis. (mi.) | Weather | Sky Cond. | Air | Dwpt | Max. | Min. | Relative Humidity | Wind Chill (°F) | Heat Index (°F) | altimeter (in) | sea level (mb) | 1 hr | 3 hr | 6 hr |
| 6 hour | |||||||||||||||||
| Temperature (ºF) | Pressure | Precipitation (in) | |||||||||||||||